This is the latest recevied weather packets stored in our database for station/object M0TJX-1. If no packets are shown the sender has not sent any weather packets the latest 10 day(s).
| Time | Temp. | Humidity | Pressure | Rain* | Wind** | Luminosity | Snow |
|---|---|---|---|---|---|---|---|
| 1777620502 | 13.89° C | 66% | 1019.4 hPa | 0 mm | - | - | - |
| 1777619602 | 13.33° C | 66% | 1019.2 hPa | 0 mm | - | - | - |
| 1777618702 | 12.78° C | 66% | 1019.2 hPa | 0 mm | - | - | - |
| 1777617802 | 12.22° C | 66% | 1019.2 hPa | 0 mm | - | - | - |
| 1777616902 | 12.22° C | 65% | 1019.1 hPa | 0 mm | - | - | - |
| 1777616002 | 12.22° C | 65% | 1019.1 hPa | 0 mm | - | - | - |
| 1777615102 | 11.67° C | 65% | 1019.2 hPa | 0 mm | - | - | - |
| 1777614202 | 11.67° C | 65% | 1019 hPa | 0 mm | - | - | - |
| 1777613302 | 11.67° C | 64% | 1018.9 hPa | 0 mm | - | - | - |
| 1777612402 | 11.67° C | 65% | 1018.7 hPa | 0 mm | - | - | - |
| 1777611502 | 11.67° C | 64% | 1018.7 hPa | 0 mm | - | - | - |
| 1777610603 | 11.67° C | 63% | 1018.6 hPa | 0 mm | - | - | - |
| 1777609702 | 11.67° C | 63% | 1018.7 hPa | 0 mm | - | - | - |
| 1777608803 | 11.67° C | 63% | 1018.7 hPa | 0 mm | - | - | - |
| 1777607902 | 11.67° C | 63% | 1018.7 hPa | 0 mm | - | - | - |
| 1777607003 | 11.67° C | 63% | 1018.4 hPa | 0 mm | - | - | - |
| 1777606102 | 11.67° C | 63% | 1018.4 hPa | 0 mm | - | - | - |
| 1777605203 | 11.67° C | 63% | 1018.4 hPa | 0 mm | - | - | - |
| 1777604303 | 11.11° C | 63% | 1018.5 hPa | 0 mm | - | - | - |
| 1777603403 | 11.67° C | 62% | 1018.6 hPa | 0 mm | - | - | - |
| 1777602502 | 11.67° C | 62% | 1018.5 hPa | 0 mm | - | - | - |
| 1777601603 | 11.67° C | 61% | 1018.4 hPa | 0 mm | - | - | - |
| 1777600703 | 11.67° C | 61% | 1018.4 hPa | 0 mm | - | - | - |
| 1777599803 | 11.67° C | 61% | 1018.6 hPa | 0 mm | - | - | - |
| 1777598903 | 12.22° C | 60% | 1018.4 hPa | 0 mm | - | - | - |
* Rain latest hour (hover to see other rain measurements)
** Current wind speed in m/s (hover to see current wind gust speed)